CW7625 Weather Reports


Display with metric or nautical units.
time (UTC)temp
F
wind
direction
speed
MPH
gust
MPH
rain 1hr
in
rain 24hr
in
rain mn
in
humidity
%
barometer
mb
20260905072105 76 165 0.0 0.0 0.00 0.00 0.00 85 1011.5
20260905070105 76 165 0.0 1.0 0.00 0.00 0.00 85 1011.5
20260905065105 76 165 0.0 0.0 0.00 0.00 0.00 85 1011.6
20260905064105 76 165 0.0 0.0 0.00 0.00 0.00 85 1011.6
20260905062105 77 165 0.0 0.0 0.00 0.00 0.00 83 1011.5
20260905061106 77 165 0.0 0.0 0.00 0.00 0.00 84 1011.5
20260905060105 77 165 0.0 0.0 0.00 0.00 0.00 83 1011.4
20260905055106 78 165 0.0 0.0 0.00 0.00 0.00 83 1011.4
20260905054105 78 165 0.0 1.0 0.00 0.00 0.00 83 1011.4
20260905053105 78 165 0.0 0.0 0.00 0.00 0.00 84 1011.4
20260905052106 77 165 0.0 0.0 0.00 0.00 0.00 83 1011.4
20260905051105 77 165 0.0 0.0 0.00 0.00 0.00 82 1011.4
20260905050105 78 165 0.0 0.0 0.00 0.00 0.00 81 1011.4
20260905044106 78 165 0.0 0.0 0.00 0.00 0.00 81 1011.4
20260905043105 78 165 0.0 0.0 0.00 0.00 0.00 80 1011.4
20260905042106 78 165 0.0 0.0 0.00 0.00 0.00 81 1011.3
20260905041105 78 165 0.0 0.0 0.00 0.00 0.00 80 1011.3
20260905035105 79 165 0.0 1.0 0.00 0.00 0.00 79 1011.2
20260905034105 79 165 0.0 0.0 0.00 0.00 0.00 79 1011.3
20260905033106 79 165 0.0 0.0 0.00 0.00 0.00 77 1011.2
20260905032106 80 165 0.0 0.0 0.00 0.00 0.00 77 1011.2
20260905031105 80 165 0.0 0.0 0.00 0.00 0.00 77 1011.2
20260905025105 81 165 0.0 0.0 0.00 0.00 0.00 76 1010.9
20260905024106 81 165 0.0 0.0 0.00 0.00 0.00 75 1010.8
20260905023105 81 165 0.0 0.0 0.00 0.00 0.00 75 1010.6
20260905022106 82 165 0.0 0.0 0.00 0.00 0.00 74 1010.7
20260905021106 82 165 0.0 0.0 0.00 0.00 0.00 72 1010.5
20260905020105 83 165 0.0 0.0 0.00 0.00 0.00 71 1010.5
20260905015105 84 165 0.0 0.0 0.00 0.00 0.00 69 1010.2
20260905014105 85 165 0.0 0.0 0.00 0.00 0.00 68 1010.2
20260905013106 86 165 0.0 0.0 0.00 0.00 0.00 66 1010.2
20260905012106 86 165 0.0 0.0 0.00 0.00 0.00 64 1010.1
20260905011106 87 165 0.0 0.0 0.00 0.00 0.00 64 1010.0
20260905010106 89 165 0.0 0.0 0.00 0.00 0.00 61 1010.0
20260905005106 90 165 0.0 0.0 0.00 0.00 0.00 58 1009.9
20260905004106 91 165 0.0 0.0 0.00 0.00 0.00 56 1009.8
20260905003106 93 165 0.0 0.0 0.00 0.00 0.00 54 1009.7
20260905002106 94 165 0.0 0.0 0.00 0.00 0.00 52 1009.6
20260905001106 95 165 0.0 1.0 0.00 0.00 0.00 50 1009.8
20260905000106 95 165 0.0 4.0 0.00 0.00 0.00 48 1009.8
20260904235106 96 204 0.0 2.0 0.00 0.00 0.00 48 1009.6
20260904234106 96 239 0.0 7.0 0.00 0.00 0.00 47 1009.6
20260904233106 96 59 3.0 7.0 0.00 0.00 0.00 46 1009.6
20260904231106 97 94 1.0 4.0 0.00 0.00 0.00 46 1009.5
20260904230106 97 92 2.0 9.0 0.00 0.00 0.00 45 1009.6
20260904225106 97 54 9.0 9.0 0.00 0.00 0.00 45 1009.5
20260904223106 98 250 4.0 6.0 0.00 0.00 0.00 46 1009.8
20260904222106 98 337 4.0 11.0 0.00 0.00 0.00 46 1009.8
20260904221106 98 267 2.0 8.0 0.00 0.00 0.00 45 1009.8
20260904220106 98 100 1.0 7.0 0.00 0.00 0.00 45 1009.8
20260904215106 98 244 1.0 8.0 0.00 0.00 0.00 45 1009.9
20260904214106 99 117 3.0 8.0 0.00 0.00 0.00 45 1009.9
20260904213106 98 360 3.0 7.0 0.00 0.00 0.00 45 1010.1
20260904212106 98 164 2.0 7.0 0.00 0.00 0.00 45 1010.3
20260904211106 97 271 1.0 4.0 0.00 0.00 0.00 46 1010.4
20260904205106 98 103 4.0 6.0 0.00 0.00 0.00 47 1010.6
20260904204106 98 220 0.0 8.0 0.00 0.00 0.00 48 1010.6
20260904203106 99 83 3.0 11.0 0.00 0.00 0.00 47 1010.8
20260904202106 98 240 1.0 6.0 0.00 0.00 0.00 47 1010.9
20260904201106 97 214 5.0 8.0 0.00 0.00 0.00 48 1011.1
20260904200106 96 65 1.0 9.0 0.00 0.00 0.00 49 1011.2
20260904195106 97 59 2.0 9.0 0.00 0.00 0.00 49 1011.4
20260904193107 97 82 0.0 5.0 0.00 0.00 0.00 49 1011.6
20260904192106 97 279 2.0 9.0 0.00 0.00 0.00 51 1011.7
20260904190106 96 194 0.0 5.0 0.00 0.00 0.00 53 1011.8
20260904185106 95 126 2.0 5.0 0.00 0.00 0.00 53 1012.1
20260904184106 94 64 1.0 7.0 0.00 0.00 0.00 55 1012.2
20260904183106 94 78 5.0 7.0 0.00 0.00 0.00 55 1012.4
20260904182106 95 236 3.0 11.0 0.00 0.00 0.00 53 1012.6
20260904181106 95 263 3.0 9.0 0.00 0.00 0.00 54 1012.7
20260904180106 94 95 2.0 9.0 0.00 0.00 0.00 57 1012.8
20260904175106 94 232 2.0 8.0 0.00 0.00 0.00 56 1012.9
20260904174107 93 230 2.0 8.0 0.00 0.00 0.00 57 1012.9
20260904173106 94 219 2.0 11.0 0.00 0.00 0.00 57 1013.1
20260904172106 93 234 1.0 6.0 0.00 0.00 0.00 59 1013.3
20260904171106 93 238 1.0 7.0 0.00 0.00 0.00 59 1013.4
20260904170106 92 180 1.0 9.0 0.00 0.00 0.00 57 1013.4
20260904165106 92 67 4.0 8.0 0.00 0.00 0.00 59 1013.6
20260904164106 92 263 2.0 8.0 0.00 0.00 0.00 62 1013.7
20260904163106 92 196 3.0 9.0 0.00 0.00 0.00 63 1013.7
20260904162107 91 233 1.0 4.0 0.00 0.00 0.00 58 1013.8
20260904161106 90 51 1.0 5.0 0.00 0.00 0.00 60 1013.8
20260904160107 90 133 2.0 8.0 0.00 0.00 0.00 64 1013.8
20260904155106 89 285 3.0 6.0 0.00 0.00 0.00 67 1013.9
20260904154107 89 229 0.0 6.0 0.00 0.00 0.00 67 1013.9
20260904153107 88 161 1.0 5.0 0.00 0.00 0.00 69 1013.9
20260904151106 88 212 3.0 6.0 0.00 0.00 0.00 72 1013.9
20260904145107 87 182 2.0 7.0 0.00 0.00 0.00 74 1013.9
20260904144107 86 198 1.0 5.0 0.00 0.00 0.00 77 1013.9
20260904143106 86 232 1.0 6.0 0.00 0.00 0.00 75 1014.0
20260904142107 86 195 0.0 3.0 0.00 0.00 0.00 76 1013.9
20260904141106 85 225 0.0 3.0 0.00 0.00 0.00 76 1013.7
20260904140107 84 225 0.0 0.0 0.00 0.00 0.00 78 1013.7
20260904134107 82 225 0.0 0.0 0.00 0.00 0.00 83 1013.8
20260904133107 80 225 0.0 0.0 0.00 0.00 0.00 86 1013.7
20260904132107 78 225 0.0 0.0 0.00 0.00 0.00 89 1013.6
20260904131107 76 225 0.0 0.0 0.00 0.00 0.00 90 1013.5
20260904130107 75 225 0.0 0.0 0.00 0.00 0.00 91 1013.5
20260904125107 74 225 0.0 0.0 0.00 0.00 0.00 92 1013.4
20260904123106 71 225 0.0 0.0 0.00 0.00 0.00 92 1013.2
20260904122107 71 225 0.0 0.0 0.00 0.00 0.00 91 1013.1
20260904121107 71 225 0.0 0.0 0.00 0.00 0.00 92 1013.0
20260904120107 71 225 0.0 0.0 0.00 0.00 0.00 91 1012.8
20260904115107 71 225 0.0 0.0 0.00 0.00 0.00 91 1012.7
20260904114107 71 225 0.0 0.0 0.00 0.00 0.00 91 1012.7
20260904113107 71 225 0.0 0.0 0.00 0.00 0.00 91 1012.6
20260904112107 72 225 0.0 0.0 0.00 0.00 0.00 91 1012.6
20260904110107 72 225 0.0 0.0 0.00 0.00 0.00 91 1012.6
20260904105107 72 225 0.0 0.0 0.00 0.00 0.00 91 1012.4
20260904104107 72 225 0.0 0.0 0.00 0.00 0.00 91 1012.6
20260904103107 72 225 0.0 0.0 0.00 0.00 0.00 91 1012.5
20260904102107 73 225 0.0 0.0 0.00 0.00 0.00 91 1012.4
20260904101107 73 225 0.0 0.0 0.00 0.00 0.00 91 1012.4
20260904100107 73 225 0.0 0.0 0.00 0.00 0.00 90 1012.5
20260904095107 73 225 0.0 0.0 0.00 0.00 0.00 90 1012.4
20260904094107 73 225 0.0 0.0 0.00 0.00 0.00 90 1012.4
20260904093107 74 225 0.0 0.0 0.00 0.00 0.00 90 1012.1
20260904091107 74 225 0.0 0.0 0.00 0.00 0.00 90 1012.1
20260904090107 74 225 0.0 0.0 0.00 0.00 0.00 90 1012.0
20260904084107 74 225 0.0 0.0 0.00 0.00 0.00 90 1012.0
20260904083107 74 225 0.0 0.0 0.00 0.00 0.00 89 1011.8
20260904082107 75 225 0.0 0.0 0.00 0.00 0.00 89 1011.8
20260904081107 75 225 0.0 0.0 0.00 0.00 0.00 89 1011.6
20260904080107 75 225 0.0 0.0 0.00 0.00 0.00 89 1011.5
20260904075107 75 225 0.0 0.0 0.00 0.00 0.00 89 1011.5
20260904074107 75 225 0.0 0.0 0.00 0.00 0.00 88 1011.5